WN4MDN Weather Reports


Display with metric or nautical units.
time (UTC)temp
F
wind
direction
speed
MPH
gust
MPH
rain 1hr
in
rain 24hr
in
rain mn
in
humidity
%
barometer
mb
20260904043100 72 134 0.0 2.0 0.00 0.21 0.00 94 1014.9
20260904042538 72 134 0.0 2.0 0.00 0.21 0.00 94 1014.9
20260904042036 72 134 1.0 1.0 0.00 0.21 0.00 94 1014.9
20260904041601 72 133 0.0 2.0 0.00 0.21 0.00 94 1014.9
20260904041039 72 133 0.0 2.0 0.00 0.21 0.00 94 1015.0
20260904040536 72 0 0.0 2.0 0.00 0.21 0.00 94 1015.0
20260904040110 72 0 0.0 2.0 0.00 0.21 0.00 94 1015.0
20260904035536 72 0 0.0 2.0 0.00 0.21 0.21 94 1015.0
20260904035037 73 134 0.0 2.0 0.00 0.21 0.21 94 1015.1
20260904034558 73 0 0.0 0.0 0.00 0.21 0.21 94 1015.0
20260904034035 73 0 0.0 2.0 0.00 0.21 0.21 94 1015.0
20260904033534 73 0 0.0 2.0 0.00 0.21 0.21 94 1015.0
20260904033053 73 134 1.0 2.0 0.00 0.21 0.21 94 1014.9
20260904032536 73 134 1.0 2.0 0.00 0.21 0.21 94 1015.0
20260904032035 73 0 0.0 2.0 0.00 0.21 0.21 94 1015.0
20260904031609 73 0 0.0 2.0 0.00 0.21 0.21 94 1015.1
20260904031035 73 133 0.0 1.0 0.00 0.21 0.21 94 1015.1
20260904030535 73 0 0.0 0.0 0.00 0.21 0.21 94 1015.0
20260904030059 73 0 0.0 0.0 0.00 0.21 0.21 94 1015.1
20260904025538 73 0 0.0 0.0 0.00 0.21 0.21 94 1015.1
20260904025036 73 0 0.0 2.0 0.00 0.21 0.21 94 1015.2
20260904024557 73 0 0.0 2.0 0.00 0.21 0.21 94 1015.1
20260904024036 73 133 0.0 1.0 0.00 0.21 0.21 94 1015.1
20260904023539 73 133 0.0 1.0 0.00 0.21 0.21 94 1015.2
20260904023058 73 134 0.0 1.0 0.00 0.21 0.21 94 1015.2
20260904022535 73 133 0.0 1.0 0.00 0.21 0.21 94 1015.1
20260904022035 73 0 0.0 1.0 0.00 0.21 0.21 94 1015.2
20260904021602 73 0 0.0 2.0 0.00 0.21 0.21 94 1015.3
20260904021034 73 133 1.0 2.0 0.00 0.21 0.21 94 1015.3
20260904020536 73 134 1.0 2.0 0.00 0.21 0.21 94 1015.3
20260904020058 74 134 0.0 2.0 0.00 0.21 0.21 94 1015.4
20260904015536 74 0 0.0 2.0 0.00 0.21 0.21 94 1015.3
20260904015035 74 133 1.0 2.0 0.00 0.21 0.21 94 1015.3
20260904014557 74 133 1.0 2.0 0.00 0.21 0.21 94 1015.3
20260904014036 74 133 1.0 2.0 0.00 0.21 0.21 94 1015.3
20260904013535 74 134 1.0 2.0 0.00 0.21 0.21 94 1015.3
20260904013101 74 134 0.0 2.0 0.00 0.21 0.21 94 1015.3
20260904012536 74 0 0.0 2.0 0.00 0.21 0.21 94 1015.3
20260904012035 74 134 1.0 2.0 0.00 0.21 0.21 94 1015.3
20260904011600 74 128 0.0 2.0 0.00 0.21 0.21 94 1015.2
20260904011035 74 0 0.0 2.0 0.00 0.21 0.21 94 1015.1
20260904010535 74 0 0.0 1.0 0.00 0.21 0.21 94 1015.2
20260904010053 74 128 0.0 2.0 0.00 0.21 0.21 94 1015.1
20260904005535 74 0 0.0 2.0 0.00 0.21 0.21 94 1015.0
20260904005035 74 128 0.0 2.0 0.00 0.21 0.21 94 1015.0
20260904004605 74 0 0.0 2.0 0.00 0.21 0.21 93 1014.8
20260904004036 74 0 0.0 2.0 0.00 0.21 0.21 93 1014.7
20260904003532 74 0 0.0 2.0 0.00 0.21 0.21 93 1014.7
20260904003056 74 128 1.0 1.0 0.00 0.21 0.21 93 1014.7
20260904002537 74 128 1.0 1.0 0.00 0.21 0.21 93 1014.5
20260904002035 74 128 0.0 1.0 0.00 0.21 0.21 93 1014.7
20260904001609 74 0 0.0 2.0 0.00 0.21 0.21 93 1014.7
20260904001038 74 0 0.0 2.0 0.01 0.21 0.21 93 1014.9
20260904000535 74 0 0.0 2.0 0.01 0.21 0.21 93 1014.8
20260904000110 74 0 0.0 2.0 0.01 0.21 0.21 93 1014.8
20260903235536 74 0 0.0 2.0 0.01 0.21 0.21 92 1014.7
20260903235035 74 128 0.0 2.0 0.01 0.21 0.21 92 1014.6
20260903234558 74 0 0.0 2.0 0.01 0.21 0.21 92 1014.5
20260903234035 74 0 0.0 2.0 0.02 0.21 0.21 92 1014.3
20260903233542 75 129 0.0 2.0 0.02 0.21 0.21 91 1014.3
20260903233104 75 129 0.0 3.0 0.02 0.21 0.21 91 1014.2
20260903232536 75 129 1.0 4.0 0.02 0.21 0.21 90 1014.2
20260903232035 75 181 2.0 4.0 0.02 0.21 0.21 90 1014.2
20260903231557 75 126 2.0 4.0 0.02 0.21 0.21 92 1014.3
20260903231035 75 135 2.0 3.0 0.01 0.20 0.20 92 1014.2
20260903230533 75 128 2.0 4.0 0.01 0.20 0.20 93 1014.2
20260903230107 75 137 2.0 4.0 0.01 0.20 0.20 93 1014.2
20260903225536 75 149 2.0 4.0 0.01 0.20 0.20 92 1014.2
20260903225035 75 115 2.0 3.0 0.01 0.20 0.20 92 1014.2
20260903224557 75 71 1.0 2.0 0.01 0.20 0.20 92 1014.3
20260903224035 75 360 0.0 2.0 0.00 0.19 0.19 92 1014.2
20260903223538 74 0 0.0 4.0 0.00 0.19 0.19 91 1014.3
20260903223055 75 360 1.0 4.0 0.00 0.19 0.19 91 1014.3
20260903222534 75 360 2.0 4.0 0.00 0.19 0.19 91 1014.2
20260903222037 75 32 1.0 2.0 0.00 0.19 0.19 90 1014.1
20260903221559 75 69 0.0 2.0 0.00 0.19 0.19 90 1014.0
20260903221035 75 0 1.0 5.0 0.00 0.19 0.19 89 1013.7
20260903220537 75 69 2.0 5.0 0.01 0.19 0.19 89 1013.6
20260903220107 76 14 2.0 5.0 0.06 0.19 0.19 90 1013.5
20260903215534 76 36 2.0 5.0 0.19 0.19 0.19 90 1013.7
20260903215036 76 39 2.0 4.0 0.19 0.19 0.19 90 1013.7
20260903214610 76 319 1.0 2.0 0.19 0.19 0.19 91 1013.8
20260903214034 77 319 0.0 4.0 0.19 0.19 0.19 91 1013.8
20260903213538 77 319 2.0 4.0 0.19 0.19 0.19 90 1013.9
20260903213102 77 333 2.0 4.0 0.19 0.19 0.19 90 1014.0
20260903212535 78 316 0.0 3.0 0.19 0.19 0.19 91 1014.0
20260903212035 78 237 1.0 2.0 0.19 0.19 0.19 91 1014.0
20260903211611 78 246 1.0 4.0 0.19 0.19 0.19 91 1013.9
20260903211036 78 0 1.0 9.0 0.19 0.19 0.19 90 1014.0
20260903210538 79 279 2.0 12.0 0.18 0.18 0.18 89 1013.8
20260903205535 82 215 7.0 14.0 0.00 0.00 0.00 81 1013.6
20260903205035 83 165 5.0 13.0 0.00 0.00 0.00 79 1013.3
20260903204600 84 117 5.0 13.0 0.00 0.00 0.00 79 1013.0
20260903204034 84 122 7.0 13.0 0.00 0.00 0.00 78 1012.9
20260903203535 84 115 5.0 10.0 0.00 0.00 0.00 79 1012.6
20260903203052 84 105 7.0 10.0 0.00 0.00 0.00 77 1012.5
20260903202538 85 140 4.0 11.0 0.00 0.00 0.00 79 1012.5
20260903202033 85 88 7.0 11.0 0.00 0.00 0.00 78 1012.4
20260903201608 85 109 6.0 11.0 0.00 0.00 0.00 78 1012.8
20260903201038 86 94 8.0 12.0 0.00 0.00 0.00 76 1013.2
20260903200536 86 78 8.0 12.0 0.00 0.00 0.00 77 1013.1
20260903195536 86 85 7.0 10.0 0.00 0.00 0.00 77 1013.9
20260903195035 86 63 7.0 11.0 0.00 0.00 0.00 75 1013.9
20260903194600 86 113 8.0 11.0 0.00 0.00 0.00 75 1013.7
20260903194035 86 106 7.0 13.0 0.00 0.00 0.00 76 1013.3
20260903193536 85 83 6.0 13.0 0.00 0.00 0.00 76 1013.2
20260903193053 85 83 8.0 13.0 0.00 0.00 0.00 74 1013.5
20260903192535 85 78 8.0 13.0 0.00 0.00 0.00 75 1013.6
20260903192034 86 115 7.0 13.0 0.00 0.00 0.00 75 1013.6
20260903191559 86 95 8.0 14.0 0.00 0.00 0.00 75 1013.5
20260903191035 86 111 9.0 16.0 0.00 0.00 0.00 73 1013.5
20260903190534 86 110 10.0 16.0 0.00 0.00 0.00 73 1013.6
20260903190057 85 133 11.0 16.0 0.00 0.00 0.00 73 1013.7
20260903185535 85 118 9.0 14.0 0.00 0.00 0.00 74 1013.8
20260903185035 84 84 8.0 15.0 0.00 0.00 0.00 73 1013.8
20260903184559 84 93 9.0 17.0 0.00 0.00 0.00 73 1014.0
20260903184036 86 78 11.0 17.0 0.00 0.00 0.00 71 1013.9
20260903183535 88 52 9.0 15.0 0.00 0.00 0.00 68 1013.8
20260903183058 92 67 4.0 12.0 0.00 0.00 0.00 62 1013.8
20260903182538 91 128 1.0 5.0 0.00 0.00 0.00 56 1013.8
20260903182036 91 137 3.0 5.0 0.00 0.00 0.00 57 1013.9
20260903181600 90 155 2.0 6.0 0.00 0.00 0.00 58 1014.0
20260903181035 90 153 2.0 6.0 0.00 0.00 0.00 57 1014.0
20260903180538 90 254 1.0 8.0 0.00 0.00 0.00 60 1013.7
20260903180105 89 148 5.0 8.0 0.00 0.00 0.00 60 1013.8
20260903175536 89 173 3.0 8.0 0.00 0.00 0.00 61 1014.1
20260903175038 89 229 2.0 10.0 0.00 0.00 0.00 63 1014.2
20260903174558 89 257 3.0 12.0 0.00 0.00 0.00 65 1014.1
20260903174035 89 200 8.0 12.0 0.00 0.00 0.00 63 1014.2
20260903173535 89 156 6.0 11.0 0.00 0.00 0.00 62 1014.3
20260903173058 89 198 6.0 11.0 0.00 0.00 0.00 64 1014.4
20260903172539 89 242 5.0 10.0 0.00 0.00 0.00 63 1014.4
20260903172035 89 221 4.0 11.0 0.00 0.00 0.00 63 1014.4
20260903171557 89 206 7.0 11.0 0.00 0.00 0.00 63 1014.4
20260903171035 89 185 5.0 9.0 0.00 0.00 0.00 63 1014.4
20260903170535 89 173 5.0 9.0 0.00 0.00 0.00 62 1014.6
20260903170106 88 144 3.0 7.0 0.00 0.00 0.00 66 1014.6
20260903165536 88 225 4.0 7.0 0.00 0.00 0.00 65 1014.6
20260903165039 88 227 2.0 6.0 0.00 0.00 0.00 67 1014.5
20260903164557 88 243 2.0 10.0 0.00 0.00 0.00 67 1014.7
20260903164036 88 188 5.0 10.0 0.00 0.00 0.00 62 1014.9
20260903163536 89 216 4.0 10.0 0.00 0.00 0.00 64 1015.0
20260903163059 88 211 6.0 10.0 0.00 0.00 0.00 64 1015.1
20260903162535 88 186 4.0 11.0 0.00 0.00 0.00 67 1015.1
20260903162036 88 202 5.0 11.0 0.00 0.00 0.00 65 1015.2
20260903161606 88 220 2.0 10.0 0.00 0.00 0.00 67 1015.1
20260903161036 88 211 6.0 10.0 0.00 0.00 0.00 65 1015.3
20260903160535 88 206 3.0 10.0 0.00 0.00 0.00 66 1015.3
20260903160100 87 207 5.0 10.0 0.00 0.00 0.00 66 1015.3
20260903155535 88 199 4.0 8.0 0.00 0.00 0.00 68 1015.4
20260903155035 88 193 3.0 9.0 0.00 0.00 0.00 68 1015.4
20260903154600 87 241 3.0 10.0 0.00 0.00 0.00 70 1015.4
20260903154036 87 229 5.0 10.0 0.00 0.00 0.00 68 1015.4
20260903153536 88 228 3.0 9.0 0.00 0.00 0.00 66 1015.4
20260903153133 87 194 3.0 9.0 0.00 0.00 0.00 68 1015.5
20260903152535 87 183 4.0 8.0 0.00 0.00 0.00 68 1015.5
20260903152039 87 148 4.0 9.0 0.00 0.00 0.00 71 1015.5
20260903151606 86 196 5.0 9.0 0.00 0.00 0.00 72 1015.6
20260903151034 86 182 4.0 16.0 0.00 0.00 0.00 72 1015.5
20260903150540 86 178 6.0 16.0 0.00 0.00 0.00 72 1015.6
20260903150110 86 180 4.0 9.0 0.00 0.00 0.00 73 1015.5
20260903145539 86 218 6.0 9.0 0.00 0.00 0.00 73 1015.5
20260903145037 86 213 4.0 9.0 0.00 0.00 0.00 73 1015.5
20260903144601 85 249 6.0 9.0 0.00 0.00 0.00 73 1015.5
20260903144038 85 217 3.0 7.0 0.00 0.00 0.00 75 1015.5
20260903143537 85 217 3.0 7.0 0.00 0.00 0.00 75 1015.4
20260903143108 85 212 4.0 7.0 0.00 0.00 0.00 77 1015.5
20260903142535 84 127 3.0 9.0 0.00 0.00 0.00 76 1015.4
20260903142036 84 182 3.0 9.0 0.00 0.00 0.00 78 1015.4
20260903141557 84 221 5.0 8.0 0.00 0.00 0.00 79 1015.2
20260903141035 83 198 4.0 6.0 0.00 0.00 0.00 78 1015.2
20260903140535 83 208 3.0 9.0 0.00 0.00 0.00 78 1015.3
20260903140100 83 201 4.0 9.0 0.00 0.00 0.00 79 1015.4
20260903135534 83 195 4.0 7.0 0.00 0.00 0.00 79 1015.4
20260903135036 82 175 3.0 7.0 0.00 0.00 0.00 80 1015.4
20260903134604 82 237 3.0 7.0 0.00 0.00 0.00 82 1015.3
20260903134037 81 231 3.0 6.0 0.00 0.00 0.00 82 1015.3
20260903133535 81 212 3.0 6.0 0.00 0.00 0.00 83 1015.2
20260903133105 80 214 3.0 5.0 0.00 0.00 0.00 84 1015.2
20260903132535 80 232 3.0 5.0 0.00 0.00 0.00 85 1015.1
20260903132036 79 201 2.0 3.0 0.00 0.00 0.00 84 1015.1
20260903131601 79 116 1.0 2.0 0.00 0.00 0.00 86 1015.2
20260903131037 78 90 1.0 2.0 0.00 0.00 0.00 87 1015.1
20260903130536 77 88 1.0 2.0 0.00 0.00 0.00 90 1015.1
20260903130057 76 88 1.0 2.0 0.00 0.00 0.00 91 1015.1
20260903125535 76 88 2.0 2.0 0.00 0.00 0.00 92 1015.1
20260903125038 76 88 1.0 2.0 0.00 0.00 0.00 92 1015.1
20260903124556 76 88 1.0 2.0 0.00 0.00 0.00 92 1015.1
20260903124038 76 88 1.0 2.0 0.00 0.00 0.00 92 1015.1
20260903123535 76 89 1.0 2.0 0.00 0.00 0.00 93 1015.1
20260903123100 76 89 1.0 2.0 0.00 0.00 0.00 94 1015.2
20260903122539 75 109 1.0 2.0 0.00 0.00 0.00 95 1015.1
20260903122035 74 130 1.0 2.0 0.00 0.00 0.00 95 1015.0
20260903121606 74 196 1.0 2.0 0.00 0.00 0.00 96 1014.9
20260903121035 73 196 0.0 2.0 0.00 0.00 0.00 96 1014.9
20260903120537 73 196 0.0 2.0 0.00 0.00 0.00 96 1014.8
20260903120058 73 196 1.0 2.0 0.00 0.00 0.00 96 1014.7
20260903115535 72 196 1.0 2.0 0.00 0.00 0.00 96 1014.9
20260903115034 72 0 0.0 2.0 0.00 0.00 0.00 96 1014.9
20260903114558 72 196 0.0 2.0 0.00 0.00 0.00 95 1015.0
20260903114036 71 0 0.0 0.0 0.00 0.00 0.00 95 1014.8
20260903113534 71 0 0.0 0.0 0.00 0.00 0.00 95 1014.8
20260903113058 71 0 0.0 0.0 0.00 0.00 0.00 95 1014.7
20260903112537 71 0 0.0 0.0 0.00 0.00 0.00 95 1014.6
20260903112034 71 0 0.0 2.0 0.00 0.00 0.00 95 1014.6
20260903111607 71 0 0.0 2.0 0.00 0.00 0.00 95 1014.5
20260903111039 71 196 0.0 2.0 0.00 0.00 0.00 95 1014.3
20260903110534 71 196 0.0 2.0 0.00 0.00 0.00 95 1014.2
20260903110104 71 0 0.0 0.0 0.00 0.00 0.00 95 1014.0
20260903105536 71 0 0.0 1.0 0.00 0.00 0.00 95 1014.0
20260903105036 71 0 0.0 1.0 0.00 0.00 0.00 95 1014.0
20260903104620 71 196 0.0 1.0 0.00 0.00 0.00 95 1014.0
20260903104034 71 196 0.0 1.0 0.00 0.00 0.00 95 1013.9
20260903103534 71 196 0.0 1.0 0.00 0.00 0.00 95 1013.9
20260903103105 71 196 0.0 1.0 0.00 0.00 0.00 95 1013.9
20260903102534 71 196 1.0 2.0 0.00 0.00 0.00 95 1013.6
20260903102034 71 196 1.0 2.0 0.00 0.00 0.00 95 1013.7
20260903101555 71 196 0.0 2.0 0.00 0.00 0.00 94 1013.7
20260903101037 71 0 0.0 1.0 0.00 0.00 0.00 94 1013.7
20260903100538 71 0 0.0 1.0 0.00 0.00 0.00 94 1013.6
20260903100059 71 196 0.0 2.0 0.00 0.00 0.00 94 1013.6
20260903095535 71 196 0.0 2.0 0.00 0.00 0.00 94 1013.6
20260903095037 71 0 0.0 1.0 0.00 0.00 0.00 94 1013.6
20260903094557 71 196 0.0 1.0 0.00 0.00 0.00 94 1013.5
20260903094039 71 0 0.0 2.0 0.00 0.00 0.00 94 1013.4
20260903093534 71 0 0.0 2.0 0.00 0.00 0.00 94 1013.4
20260903093105 71 196 1.0 2.0 0.00 0.00 0.00 94 1013.5
20260903092536 71 196 1.0 1.0 0.00 0.00 0.00 94 1013.4
20260903092035 71 0 0.0 0.0 0.00 0.00 0.00 93 1013.5
20260903091555 72 0 0.0 1.0 0.00 0.00 0.00 94 1013.6
20260903091035 72 0 0.0 1.0 0.00 0.00 0.00 94 1013.5
20260903090535 72 196 1.0 2.0 0.00 0.00 0.00 94 1013.4
20260903090053 72 196 0.0 2.0 0.00 0.00 0.00 94 1013.3
20260903085535 72 196 0.0 2.0 0.00 0.00 0.00 94 1013.2
20260903085033 72 196 0.0 2.0 0.00 0.00 0.00 94 1013.3
20260903084600 72 0 0.0 0.0 0.00 0.00 0.00 94 1013.3
20260903084035 72 0 0.0 2.0 0.00 0.00 0.00 94 1013.4
20260903083533 72 0 0.0 2.0 0.00 0.00 0.00 94 1013.4
20260903083105 72 0 0.0 2.0 0.00 0.00 0.00 93 1013.4
20260903082531 72 0 0.0 2.0 0.00 0.00 0.00 93 1013.4
20260903082034 73 196 0.0 2.0 0.00 0.00 0.00 93 1013.3
20260903081614 73 196 0.0 1.0 0.00 0.00 0.00 93 1013.4
20260903081032 73 196 0.0 1.0 0.00 0.00 0.00 93 1013.5
20260903080537 73 0 0.0 2.0 0.00 0.00 0.00 93 1013.4
20260903080109 73 0 0.0 2.0 0.00 0.00 0.00 93 1013.4
20260903075533 73 0 0.0 2.0 0.00 0.00 0.00 93 1013.4
20260903075033 73 196 1.0 2.0 0.00 0.00 0.00 93 1013.4
20260903074559 73 196 0.0 2.0 0.00 0.00 0.00 93 1013.4
20260903074034 74 196 0.0 2.0 0.00 0.00 0.00 93 1013.5
20260903073533 74 196 0.0 2.0 0.00 0.00 0.00 93 1013.4
20260903073058 74 196 1.0 3.0 0.00 0.00 0.00 93 1013.5
20260903072533 74 142 1.0 4.0 0.00 0.00 0.00 93 1013.5
20260903072035 74 186 2.0 4.0 0.00 0.00 0.00 93 1013.5
20260903071558 74 203 1.0 2.0 0.00 0.00 0.00 93 1013.7
20260903071033 74 162 1.0 3.0 0.00 0.00 0.00 93 1013.8
20260903070535 74 170 0.0 3.0 0.00 0.00 0.00 93 1013.7
20260903070058 74 146 0.0 2.0 0.00 0.00 0.00 93 1013.7
20260903065534 74 146 0.0 2.0 0.00 0.00 0.00 93 1013.6
20260903065033 74 146 0.0 2.0 0.00 0.00 0.00 94 1013.6
20260903064558 74 146 1.0 2.0 0.00 0.00 0.00 94 1013.5
20260903064032 74 146 0.0 3.0 0.00 0.00 0.00 94 1013.5
20260903063531 74 140 1.0 3.0 0.00 0.00 0.00 94 1013.5
20260903063108 74 149 1.0 2.0 0.00 0.00 0.00 94 1013.4
20260903062533 74 149 1.0 2.0 0.00 0.00 0.00 94 1013.3
20260903062034 73 149 1.0 2.0 0.00 0.00 0.00 94 1013.3
20260903061605 74 149 1.0 2.0 0.00 0.00 0.00 94 1013.5
20260903061033 74 158 1.0 2.0 0.00 0.00 0.00 94 1013.6
20260903060533 74 158 1.0 2.0 0.00 0.00 0.00 94 1013.6
20260903060052 74 158 1.0 2.0 0.00 0.00 0.00 94 1013.6
20260903055530 74 158 0.0 2.0 0.00 0.00 0.00 94 1013.7
20260903055033 74 158 0.0 2.0 0.00 0.00 0.00 94 1013.8
20260903054607 73 158 0.0 2.0 0.00 0.00 0.00 95 1014.0
20260903054033 73 158 1.0 3.0 0.00 0.00 0.00 95 1014.1
20260903053535 73 158 1.0 4.0 0.00 0.00 0.00 95 1014.2
20260903053104 73 165 2.0 4.0 0.00 0.00 0.00 94 1014.2
20260903052534 73 207 1.0 4.0 0.00 0.00 0.00 94 1014.1
20260903052034 73 340 0.0 2.0 0.00 0.00 0.00 94 1014.3
20260903051605 73 0 0.0 0.0 0.00 0.00 0.00 94 1014.4
20260903051035 73 0 0.0 0.0 0.00 0.00 0.00 94 1014.4
20260903050535 73 0 0.0 1.0 0.00 0.00 0.00 94 1014.5
20260903050108 73 0 0.0 1.0 0.00 0.00 0.00 94 1014.3
20260903045535 73 0 0.0 1.0 0.00 0.00 0.00 94 1014.5
20260903045033 73 340 0.0 1.0 0.00 0.00 0.00 94 1014.5
20260903044556 73 340 0.0 0.0 0.00 0.00 0.00 94 1014.6
20260903044035 73 0 0.0 0.0 0.00 0.00 0.00 94 1014.6
20260903043539 73 0 0.0 2.0 0.00 0.00 0.00 94 1014.6